• In Hungary
  • List of Countries
  • For 7 days
  • Water Temperature
  • Satellite Maps
  • Weather Map
  • News
  • Weather Widgets
  • user-avatar
    Login

    Hourly Weather Córdoba

    Today, 21 January, Sunday

    Time Temperature Precipitation Wind Pressure Humidity
    00:00 +21°C° 0.2 mm 2 mps 722 mmHg 71%
    01:00 +21°C° 0.2 mm 2 mps 721 mmHg 72%
    02:00 +21°C° 0.2 mm 2 mps 721 mmHg 73%
    03:00 +21°C° 0 mm 2 mps 721 mmHg 72%
    04:00 +21°C° 0 mm 1 mps 721 mmHg 72%
    05:00 +21°C° 0 mm 1 mps 721 mmHg 71%
    06:00 +23°C° 0 mm 1 mps 721 mmHg 64%
    07:00 +25°C° 0 mm 1 mps 721 mmHg 57%
    08:00 +27°C° 0 mm 1 mps 722 mmHg 50%
    09:00 +29°C° 0 mm 2 mps 722 mmHg 44%
    10:00 +31°C° 0 mm 3 mps 722 mmHg 38%
    11:00 +33°C° 0 mm 4 mps 722 mmHg 33%
    12:00 +34°C° 0 mm 4 mps 721 mmHg 31%
    13:00 +35°C° 0 mm 4 mps 720 mmHg 30%
    14:00 +35°C° 0 mm 4 mps 720 mmHg 28%
    15:00 +35°C° 0 mm 4 mps 719 mmHg 29%
    16:00 +35°C° 0 mm 4 mps 719 mmHg 30%
    17:00 +34°C° 0 mm 4 mps 718 mmHg 30%
    18:00 +31°C° 0 mm 3 mps 718 mmHg 35%
    19:00 +29°C° 0 mm 3 mps 718 mmHg 39%
    20:00 +27°C° 0 mm 2 mps 718 mmHg 44%
    21:00 +26°C° 0 mm 2 mps 718 mmHg 45%
    22:00 +25°C° 0 mm 2 mps 718 mmHg 46%
    23:00 +25°C° 0 mm 2 mps 719 mmHg 47%

    Tomorrow, 22 January, Monday

    Time Temperature Precipitation Wind Pressure Humidity
    00:00 +24°C° 0 mm 2 mps 718 mmHg 48%
    01:00 +24°C° 0 mm 2 mps 718 mmHg 49%
    02:00 +24°C° 0 mm 1 mps 718 mmHg 50%
    03:00 +23°C° 0 mm 1 mps 718 mmHg 51%
    04:00 +23°C° 0 mm 1 mps 718 mmHg 52%
    05:00 +22°C° 0 mm 1 mps 718 mmHg 53%
    06:00 +25°C° 0 mm 1 mps 718 mmHg 49%
    07:00 +27°C° 0 mm 1 mps 719 mmHg 45%
    08:00 +29°C° 0 mm 1 mps 719 mmHg 41%
    09:00 +31°C° 0 mm 2 mps 719 mmHg 37%
    10:00 +33°C° 0 mm 3 mps 719 mmHg 34%
    11:00 +35°C° 0 mm 3 mps 719 mmHg 30%
    12:00 +36°C° 0 mm 3 mps 718 mmHg 28%
    13:00 +37°C° 0 mm 3 mps 717 mmHg 26%
    14:00 +37°C° 0 mm 3 mps 717 mmHg 24%
    15:00 +37°C° 0 mm 3 mps 716 mmHg 25%
    16:00 +37°C° 0 mm 2 mps 716 mmHg 25%
    17:00 +37°C° 0 mm 2 mps 716 mmHg 26%
    18:00 +34°C° 0 mm 2 mps 716 mmHg 31%
    19:00 +31°C° 0 mm 2 mps 716 mmHg 36%
    20:00 +29°C° 0 mm 1 mps 716 mmHg 40%
    21:00 +28°C° 0 mm 2 mps 716 mmHg 43%
    22:00 +27°C° 0 mm 2 mps 717 mmHg 45%
    23:00 +26°C° 0 mm 2 mps 717 mmHg 47%

    Day after tomorrow, 23 January, Tuesday

    Time Temperature Precipitation Wind Pressure Humidity
    00:00 +26°C° 0 mm 2 mps 717 mmHg 48%
    01:00 +26°C° 0 mm 2 mps 716 mmHg 49%
    02:00 +25°C° 0 mm 1 mps 716 mmHg 50%
    03:00 +25°C° 0 mm 1 mps 716 mmHg 51%
    04:00 +25°C° 0 mm 1 mps 716 mmHg 52%
    05:00 +24°C° 0 mm 1 mps 716 mmHg 53%
    06:00 +27°C° 0 mm 1 mps 717 mmHg 49%
    07:00 +29°C° 0 mm 1 mps 717 mmHg 45%
    08:00 +31°C° 0 mm 1 mps 718 mmHg 41%
    09:00 +33°C° 0 mm 1 mps 718 mmHg 36%
    10:00 +36°C° 0 mm 2 mps 718 mmHg 32%
    11:00 +38°C° 0 mm 2 mps 718 mmHg 28%
    12:00 +38°C° 0 mm 2 mps 718 mmHg 27%
    13:00 +39°C° 0 mm 2 mps 717 mmHg 26%
    14:00 +39°C° 0 mm 2 mps 717 mmHg 25%
    15:00 +38°C° 0.1 mm 2 mps 716 mmHg 27%
    16:00 +38°C° 0.1 mm 2 mps 716 mmHg 30%
    17:00 +37°C° 0.1 mm 2 mps 716 mmHg 32%
    18:00 +35°C° 0.3 mm 2 mps 716 mmHg 38%
    19:00 +31°C° 0.3 mm 2 mps 717 mmHg 44%
    20:00 +29°C° 0.3 mm 3 mps 717 mmHg 50%
    21:00 +27°C° 1.1 mm 3 mps 718 mmHg 58%
    22:00 +26°C° 1.1 mm 3 mps 718 mmHg 66%
    23:00 +24°C° 1.1 mm 3 mps 719 mmHg 75%

    24 January, Wednesday

    Time Temperature Precipitation Wind Pressure Humidity
    00:00 +24°C° 0.2 mm 3 mps 719 mmHg 73%
    01:00 +24°C° 0.2 mm 2 mps 719 mmHg 71%
    02:00 +24°C° 0.2 mm 2 mps 718 mmHg 69%
    03:00 +24°C° 0.2 mm 2 mps 718 mmHg 68%
    04:00 +24°C° 0.2 mm 2 mps 718 mmHg 68%
    05:00 +24°C° 0.2 mm 2 mps 718 mmHg 67%
    06:00 +25°C° 0.3 mm 3 mps 719 mmHg 65%
    07:00 +26°C° 0.3 mm 4 mps 720 mmHg 63%
    08:00 +27°C° 0.3 mm 5 mps 721 mmHg 61%
    09:00 +29°C° 0.1 mm 5 mps 721 mmHg 54%
    10:00 +32°C° 0.1 mm 5 mps 722 mmHg 47%
    11:00 +34°C° 0.1 mm 5 mps 722 mmHg 41%
    12:00 +34°C° 0.1 mm 5 mps 722 mmHg 39%
    13:00 +35°C° 0.1 mm 6 mps 722 mmHg 36%
    14:00 +36°C° 0.1 mm 6 mps 721 mmHg 34%
    15:00 +35°C° 0.2 mm 5 mps 721 mmHg 37%
    16:00 +34°C° 0.2 mm 5 mps 721 mmHg 40%
    17:00 +33°C° 0.2 mm 5 mps 721 mmHg 42%
    18:00 +30°C° 0.4 mm 4 mps 721 mmHg 51%
    19:00 +27°C° 0.4 mm 4 mps 721 mmHg 60%
    20:00 +24°C° 0.4 mm 3 mps 722 mmHg 69%
    21:00 +24°C° 0.1 mm 3 mps 722 mmHg 69%
    22:00 +24°C° 0.1 mm 3 mps 723 mmHg 69%
    23:00 +22°C° 0.1 mm 3 mps 723 mmHg 69%

    25 January, Thursday

    Time Temperature Precipitation Wind Pressure Humidity
    00:00 +23°C° 0 mm 2 mps 723 mmHg 71%
    01:00 +23°C° 0 mm 2 mps 723 mmHg 73%
    02:00 +21°C° 0 mm 2 mps 723 mmHg 75%
    03:00 +21°C° 0.1 mm 2 mps 723 mmHg 76%
    04:00 +21°C° 0.1 mm 2 mps 724 mmHg 78%
    05:00 +21°C° 0.1 mm 3 mps 724 mmHg 80%
    06:00 +21°C° 0.4 mm 3 mps 724 mmHg 81%
    07:00 +20°C° 0.4 mm 3 mps 724 mmHg 82%
    08:00 +20°C° 0.4 mm 3 mps 725 mmHg 83%
    09:00 +21°C° 0.4 mm 3 mps 725 mmHg 81%
    10:00 +21°C° 0.4 mm 3 mps 725 mmHg 78%
    11:00 +23°C° 0.4 mm 2 mps 725 mmHg 76%
    12:00 +24°C° 0.2 mm 3 mps 724 mmHg 72%
    13:00 +25°C° 0.2 mm 3 mps 724 mmHg 69%
    14:00 +26°C° 0.2 mm 4 mps 724 mmHg 65%
    15:00 +26°C° 0 mm 4 mps 723 mmHg 68%
    16:00 +25°C° 0 mm 4 mps 722 mmHg 71%
    17:00 +25°C° 0 mm 3 mps 722 mmHg 74%
    18:00 +24°C° 0 mm 3 mps 722 mmHg 77%
    19:00 +23°C° 0 mm 2 mps 722 mmHg 81%
    20:00 +23°C° 0 mm 2 mps 722 mmHg 84%
    21:00 +21°C° 0 mm 2 mps 722 mmHg 85%
    22:00 +21°C° 0 mm 2 mps 722 mmHg 86%
    23:00 +21°C° 0 mm 2 mps 722 mmHg 87%

    26 January, Friday

    Time Temperature Precipitation Wind Pressure Humidity
    00:00 +21°C° 0.2 mm 2 mps 722 mmHg 88%
    01:00 +21°C° 0.2 mm 2 mps 722 mmHg 89%
    02:00 +21°C° 0.2 mm 1 mps 721 mmHg 90%
    03:00 +21°C° 0.1 mm 1 mps 721 mmHg 90%
    04:00 +21°C° 0.1 mm 1 mps 721 mmHg 89%
    05:00 +21°C° 0.1 mm 1 mps 721 mmHg 88%
    06:00 +21°C° 0.1 mm 1 mps 721 mmHg 85%
    07:00 +22°C° 0.1 mm 1 mps 721 mmHg 82%
    08:00 +22°C° 0.1 mm 1 mps 721 mmHg 79%
    09:00 +23°C° 0 mm 1 mps 721 mmHg 73%
    10:00 +25°C° 0 mm 2 mps 721 mmHg 67%
    11:00 +26°C° 0 mm 2 mps 721 mmHg 61%
    12:00 +28°C° 0.1 mm 2 mps 720 mmHg 57%
    13:00 +30°C° 0.1 mm 3 mps 720 mmHg 53%
    14:00 +33°C° 0.1 mm 3 mps 719 mmHg 49%
    15:00 +33°C° 0.1 mm 4 mps 719 mmHg 50%
    16:00 +33°C° 0.1 mm 4 mps 718 mmHg 51%
    17:00 +33°C° 0.1 mm 4 mps 718 mmHg 53%
    18:00 +30°C° 0.1 mm 4 mps 718 mmHg 61%
    19:00 +28°C° 0.1 mm 3 mps 718 mmHg 70%
    20:00 +26°C° 0.1 mm 2 mps 717 mmHg 79%
    21:00 +26°C° 0.1 mm 2 mps 717 mmHg 81%
    22:00 +25°C° 0.1 mm 2 mps 718 mmHg 84%
    23:00 +24°C° 0.1 mm 1 mps 718 mmHg 86%
    Show more